SL-14 DEB, 45332

Orbit data source: Space-Track

SL-14 DEB, 45332 is space debris in LEO originally from a launch on Thu, 15 Aug 1991 UTC launched from the Plesetsk Missile And Space Complex (PKMTR). Debris objects in space refer to the collection of defunct objects orbiting the Earth. Examples of debris include non-operational satellites, rocket bodies, and fragments generated from explosions, collisions, or faulty payload assembly.

Loading next visibility...
Identifier
45332, 1991-056BW
Orbit
LEO
Country
Flag of CISCIS
Related business
Manufacturer
Unknown
Mission
Spacecraft
Bus & Motor
Unknown
Mass
Unknown
Launch date (UTC)
1991-08-15 (35 years ago)
Launch vehicle
Unknown
Launch site
Plesetsk Missile And Space Complex (PKMTR)
Object type
Payload
Rocket body
Debris
Shape & HBR
Unknown shape, 0.1 m
Radar Cross Section
Medium (>0.1 m² and <1 m²)

Expand to show TLE details & history
Last TLE update: 2 days ago

TLE from 2 days ago
0 SL-14 DEB
1 45332U 91056BW  26171.33764488 -.00000026  00000-0 -10286-3 0  9998
2 45332  82.5523 148.8962 0105083 190.1236 169.7769 13.13199186301888
Epoch: 2026-06-20T08:06Z
TLE epoch observation values (Epoch: 2026-06-20T08:06:12.517Z)
Latitude
-0.00006°
Longitude
118.79033°
Altitude
1,292.132 km
Speed
7.173 km/s
True Right ascension
09h 55m 35s
True Declination
0° 00' 00"
Sunlit
Object was in daylight at epoch
Visualization orbit readout
Latitude
Unknown
Longitude
Unknown
Altitude
Unknown
Speed
Unknown
Apparent Right ascension
Unknown
Apparent Declination
Unknown
Sunlit
N/A
Visualization observer readout
Local Sidereal Time
21:38:05
Azimuth
Unknown
Elevation
Unknown
Doppler factor
Unknown
Orbital elements
Apogee altitude
1,287.776 km
Perigee altitude
1,128.34 km
Semi-major axis
7,586.195 km
Eccentricity
0.01051
Inclination
82.5523°
RAAN
148.8962°
Arg. of periapsis
190.1236°
True anomaly
169.98789°
Mean anomaly
169.7769°
Eccentric anomaly
169.88266°
Mean motion
3.28479 °/min
Orbital period
109.6 mins
BSTAR
-0.00010286
Loading maneuver chart data...
Computing Atmospheric mass density...
Loading historical data...
Loading historical data...
Loading historical data...
Loading historical data...
Loading historical data...
Loading historical data...
Loading historical data...

Documentation

Showing up to 5 results
|